M0SWV Weather Reports


time (UTC)temp
F
wind
direction
speed
knots
gust
knots
rain 1hr
in
rain 24hr
in
rain mn
in
humidity
%
barometer
mb
20260505200034 49 311 1.7 5.2 0.00 0.00 0.00 79 1015.5
20260505194530 49 0 1.7 7.0 0.00 0.00 0.00 79 1015.4
20260505193030 49 25 3.5 7.0 0.00 0.00 0.00 78 1015.3
20260505191540 50 15 0.9 4.3 0.00 0.00 0.00 78 1015.3
20260505190035 50 49 1.7 5.2 0.00 0.00 0.00 78 1015.2
20260505184544 50 352 0.9 5.2 0.00 0.00 0.00 78 1015.2
20260505183038 50 329 0.9 5.2 0.00 0.00 0.00 77 1015.1
20260505181529 51 24 1.7 9.6 0.00 0.00 0.00 77 1015.1
20260505180035 51 270 2.6 8.7 0.00 0.00 0.00 76 1015.1
20260505174530 52 71 2.6 8.7 0.00 0.00 0.00 75 1015.1
20260505173033 52 333 0.9 5.2 0.00 0.00 0.00 74 1015.3
20260505171532 52 16 1.7 7.0 0.00 0.00 0.00 73 1015.3
20260505170036 52 350 1.7 8.7 0.00 0.00 0.00 74 1015.2
20260505164535 52 57 1.7 5.2 0.00 0.00 0.00 75 1015.3
20260505163034 52 32 1.7 5.2 0.00 0.00 0.00 76 1015.3
20260505161530 52 47 1.7 6.1 0.00 0.00 0.00 75 1015.5
20260505153036 53 341 2.6 7.8 0.00 0.00 0.00 71 1015.4
20260505151543 53 19 2.6 7.8 0.00 0.00 0.00 71 1015.3
20260505124535 52 67 2.6 8.7 0.00 0.00 0.00 72 1015.8
20260505123029 53 5 2.6 9.6 0.00 0.00 0.00 72 1015.8
20260505121536 53 10 2.6 9.6 0.00 0.00 0.00 71 1015.7
20260505120035 53 60 4.3 12.2 0.00 0.00 0.00 69 1015.6
20260505114530 54 342 2.6 7.0 0.00 0.00 0.00 66 1015.8
20260505113040 53 80 3.5 10.4 0.00 0.00 0.00 67 1015.6
20260505111540 54 43 5.2 10.4 0.00 0.00 0.00 64 1015.7
20260505101534 53 23 3.5 9.6 0.00 0.00 0.00 67 1016.1
20260505100028 53 291 1.7 7.8 0.00 0.00 0.00 68 1016.0
20260505094530 53 328 3.5 8.7 0.00 0.00 0.00 66 1016.0
20260505093045 54 119 3.5 10.4 0.00 0.00 0.00 65 1016.0
20260505091533 54 109 2.6 7.8 0.00 0.00 0.00 68 1016.1
20260505090032 53 11 2.6 7.8 0.00 0.00 0.00 69 1016.0
20260505084531 52 34 2.6 10.4 0.00 0.00 0.00 67 1016.2
20260505083031 52 94 3.5 8.7 0.00 0.00 0.00 68 1016.1
20260505081533 52 348 3.5 12.2 0.00 0.00 0.00 69 1016.3
20260505080035 52 59 2.6 8.7 0.00 0.00 0.00 69 1016.3
20260505074530 51 28 3.5 7.0 0.00 0.00 0.00 70 1016.3
20260505073030 50 20 2.6 7.8 0.00 0.00 0.00 73 1016.5
20260505071532 50 302 0.0 3.5 0.00 0.00 0.00 75 1016.5
20260505070041 49 0 0.9 2.6 0.00 0.00 0.00 76 1016.4
20260505064533 49 0 0.0 1.7 0.00 0.00 0.00 77 1016.6
20260505063030 49 340 0.0 3.5 0.00 0.00 0.00 79 1016.7
20260505061534 48 0 0.0 1.7 0.00 0.00 0.00 79 1016.6
20260505060035 48 0 0.0 1.7 0.00 0.00 0.00 79 1016.5
20260505054542 48 327 0.9 4.3 0.00 0.00 0.00 80 1016.5
20260505053033 47 0 0.0 0.0 0.00 0.00 0.00 82 1016.6
20260505051532 47 0 0.0 0.0 0.00 0.00 0.00 83 1016.4
20260505041530 47 292 0.0 1.7 0.00 0.00 0.00 80 1016.1
20260505040040 47 328 0.9 3.5 0.00 0.00 0.00 82 1016.2
20260505034538 47 302 0.0 3.5 0.00 0.00 0.00 84 1016.2
20260505033032 47 0 0.0 0.0 0.00 0.00 0.00 85 1016.3
20260505031530 47 0 0.0 0.0 0.00 0.00 0.00 85 1016.2
20260505030030 48 286 0.0 2.6 0.00 0.00 0.00 85 1016.1
20260505024529 48 0 1.7 5.2 0.00 0.00 0.00 86 1016.2
20260505023030 47 343 2.6 6.1 0.00 0.00 0.00 87 1016.2
20260505021534 47 0 0.0 2.6 0.00 0.00 0.00 90 1016.3
20260505020037 47 346 0.0 0.9 0.00 0.00 0.00 92 1016.5
20260505014530 47 0 0.0 0.9 0.00 0.00 0.00 93 1016.8
20260505013030 46 324 0.0 1.7 0.00 0.00 0.00 93 1016.8
20260505011536 47 0 0.0 0.9 0.00 0.00 0.00 92 1016.6
20260505010033 47 0 0.0 0.0 0.00 0.00 0.00 91 1016.8
20260505004530 48 0 0.0 0.9 0.00 0.00 0.00 91 1016.8
20260505003030 48 0 0.0 0.9 0.00 0.00 0.00 90 1017.0
20260505001533 49 27 0.0 5.2 0.00 0.00 0.00 90 1017.1
20260505000046 49 93 0.9 5.2 0.00 0.00 0.00 90 1017.1
20260504234536 50 76 2.6 7.8 0.00 0.00 0.00 89 1017.2
20260504233030 50 41 1.7 5.2 0.00 0.00 0.00 88 1017.0
20260504231529 50 15 1.7 5.2 0.00 0.00 0.00 88 1017.1
20260504230029 51 28 1.7 5.2 0.00 0.00 0.00 87 1017.1
20260504224536 51 350 1.7 3.5 0.00 0.00 0.00 86 1017.0
20260504223032 52 0 0.9 3.5 0.00 0.00 0.00 84 1017.1
20260504221533 52 344 1.7 5.2 0.00 0.00 0.00 85 1017.1
20260504220043 53 0 0.0 3.5 0.00 0.00 0.00 85 1017.3
20260504214536 53 360 0.9 3.5 0.00 0.00 0.00 84 1017.2
20260504213044 53 22 0.0 3.5 0.00 0.00 0.00 84 1017.2
20260504211538 53 26 0.9 2.6 0.00 0.00 0.00 84 1017.2
20260504210034 53 52 0.0 3.5 0.00 0.00 0.00 84 1017.2
20260504204538 54 115 0.9 4.3 0.00 0.00 0.00 83 1017.2
20260504203030 54 127 0.9 3.5 0.00 0.00 0.00 83 1017.1
20260504201530 54 38 0.9 4.3 0.00 0.00 0.00 83 1017.0